Orbital Elements at Epoch 2459200.5 (2020-Dec-17.0) TDB
Reference: JPL 20 (heliocentric ecliptic J2000)
Element | Value | Uncertainty (1-sigma) | Units |
e | .09817321190576402 | 3.9486e-08 | |
a | 2.387021598243865 | 9.5413e-09 | au |
q | 2.152680021055835 | 9.7573e-08 | au |
i | 3.292248705867631 | 3.9667e-06 | deg |
node | 315.3589138792513 | 6.5088e-05 | deg |
peri | 28.55246642692565 | 6.7823e-05 | deg |
M | 301.192021427024 | 2.0676e-05 | deg |
tp | 2459420.547632592227 (2021-Jul-25.04763259) | 7.801e-05 | TDB |
period | 1347.047622711596 3.69 | 8.0765e-06 2.211e-08 | d yr |
n | .2672511304947949 | 1.6024e-09 | deg/d |
Q | 2.621363175431896 | 1.0478e-08 | au |
|
| | Orbit Determination Parameters
Additional Information
|